• In Lithuania
  • List of Countries
  • For 7 days
  • Water Temperature
  • Satellite Maps
  • Weather Map
  • Weather Widgets
  • user-avatar
    Login

    Hourly Weather Chongaj

    Today, 13 November, Tuesday

    Time Temperature Precipitation Wind Pressure Humidity
    00:00 +26°C° 0 mm 1 mps 737 mmHg 71%
    01:00 +26°C° 0 mm 1 mps 737 mmHg 72%
    02:00 +25°C° 0 mm 1 mps 737 mmHg 74%
    03:00 +25°C° 0 mm 1 mps 737 mmHg 76%
    04:00 +25°C° 0 mm 1 mps 737 mmHg 78%
    05:00 +25°C° 0 mm 1 mps 737 mmHg 78%
    06:00 +25°C° 0 mm 1 mps 738 mmHg 78%
    07:00 +25°C° 0 mm 1 mps 738 mmHg 78%
    08:00 +28°C° 0 mm 1 mps 738 mmHg 70%
    09:00 +30°C° 0 mm 1 mps 738 mmHg 62%
    10:00 +32°C° 0 mm 1 mps 738 mmHg 54%
    11:00 +33°C° 0 mm 1 mps 738 mmHg 51%
    12:00 +35°C° 0 mm 1 mps 737 mmHg 47%
    13:00 +34°C° 0 mm 0 mps 736 mmHg 43%
    14:00 +33°C° 0 mm 0 mps 736 mmHg 45%
    15:00 +33°C° 0 mm 0 mps 735 mmHg 47%
    16:00 +34°C° 0 mm 1 mps 735 mmHg 49%
    17:00 +30°C° 0 mm 0 mps 735 mmHg 54%
    18:00 +28°C° 0 mm 0 mps 735 mmHg 59%
    19:00 +27°C° 0 mm 0 mps 735 mmHg 63%
    20:00 +26°C° 0 mm 0 mps 736 mmHg 65%
    21:00 +26°C° 0 mm 0 mps 736 mmHg 66%
    22:00 +28°C° 0 mm 1 mps 737 mmHg 67%
    23:00 +25°C° 0 mm 0 mps 737 mmHg 68%

    Tomorrow, 14 November, Wednesday

    Time Temperature Precipitation Wind Pressure Humidity
    00:00 +25°C° 0 mm 0 mps 737 mmHg 70%
    01:00 +24°C° 0 mm 0 mps 737 mmHg 71%
    02:00 +26°C° 0 mm 1 mps 737 mmHg 72%
    03:00 +26°C° 0 mm 1 mps 736 mmHg 74%
    04:00 +26°C° 0 mm 1 mps 736 mmHg 75%
    05:00 +26°C° 0 mm 1 mps 737 mmHg 76%
    06:00 +26°C° 0 mm 1 mps 737 mmHg 77%
    07:00 +26°C° 0 mm 1 mps 738 mmHg 78%
    08:00 +28°C° 0 mm 1 mps 738 mmHg 70%
    09:00 +30°C° 0 mm 1 mps 738 mmHg 62%
    10:00 +32°C° 0 mm 1 mps 739 mmHg 54%
    11:00 +34°C° 0 mm 1 mps 738 mmHg 51%
    12:00 +35°C° 0 mm 1 mps 737 mmHg 47%
    13:00 +36°C° 0 mm 1 mps 737 mmHg 44%
    14:00 +35°C° 0 mm 1 mps 736 mmHg 47%
    15:00 +34°C° 0 mm 1 mps 735 mmHg 49%
    16:00 +34°C° 0 mm 1 mps 735 mmHg 52%
    17:00 +30°C° 0 mm 0 mps 735 mmHg 56%
    18:00 +29°C° 0 mm 0 mps 736 mmHg 60%
    19:00 +27°C° 0 mm 0 mps 736 mmHg 64%
    20:00 +27°C° 0 mm 0 mps 737 mmHg 65%
    21:00 +26°C° 0 mm 0 mps 737 mmHg 66%
    22:00 +28°C° 0 mm 1 mps 738 mmHg 68%
    23:00 +28°C° 0 mm 1 mps 738 mmHg 69%

    Day after tomorrow, 15 November, Thursday

    Time Temperature Precipitation Wind Pressure Humidity
    00:00 +27°C° 0 mm 1 mps 738 mmHg 71%
    01:00 +25°C° 0 mm 0 mps 738 mmHg 72%
    02:00 +27°C° 0 mm 1 mps 737 mmHg 73%
    03:00 +26°C° 0 mm 1 mps 737 mmHg 75%
    04:00 +26°C° 0 mm 1 mps 737 mmHg 76%
    05:00 +26°C° 0 mm 1 mps 738 mmHg 77%
    06:00 +26°C° 0 mm 1 mps 738 mmHg 77%
    07:00 +26°C° 0 mm 1 mps 739 mmHg 78%
    08:00 +28°C° 0 mm 1 mps 739 mmHg 70%
    09:00 +30°C° 0 mm 1 mps 740 mmHg 61%
    10:00 +32°C° 0 mm 2 mps 740 mmHg 53%
    11:00 +34°C° 0 mm 1 mps 739 mmHg 50%
    12:00 +35°C° 0 mm 1 mps 738 mmHg 47%
    13:00 +34°C° 0 mm 0 mps 738 mmHg 44%
    14:00 +34°C° 0 mm 0 mps 737 mmHg 45%
    15:00 +33°C° 0 mm 0 mps 736 mmHg 46%
    16:00 +32°C° 0 mm 0 mps 736 mmHg 48%
    17:00 +31°C° 0 mm 0 mps 736 mmHg 53%
    18:00 +29°C° 0 mm 0 mps 737 mmHg 58%
    19:00 +27°C° 0 mm 0 mps 737 mmHg 63%
    20:00 +27°C° 0 mm 0 mps 738 mmHg 65%
    21:00 +26°C° 0 mm 0 mps 738 mmHg 67%
    22:00 +26°C° 0 mm 0 mps 739 mmHg 69%
    23:00 +25°C° 0 mm 0 mps 738 mmHg 70%

    16 November, Friday

    Time Temperature Precipitation Wind Pressure Humidity
    00:00 +25°C° 0 mm 0 mps 738 mmHg 72%
    01:00 +24°C° 0 mm 0 mps 738 mmHg 73%
    02:00 +24°C° 0 mm 0 mps 738 mmHg 75%
    03:00 +24°C° 0 mm 0 mps 738 mmHg 76%
    04:00 +24°C° 0 mm 0 mps 737 mmHg 77%
    05:00 +24°C° 0 mm 0 mps 738 mmHg 77%
    06:00 +26°C° 0 mm 1 mps 738 mmHg 77%
    07:00 +26°C° 0 mm 1 mps 739 mmHg 77%
    08:00 +28°C° 0 mm 1 mps 739 mmHg 70%
    09:00 +31°C° 0 mm 1 mps 740 mmHg 62%
    10:00 +33°C° 0 mm 1 mps 740 mmHg 54%
    11:00 +34°C° 0 mm 1 mps 739 mmHg 51%
    12:00 +35°C° 0 mm 1 mps 738 mmHg 48%
    13:00 +34°C° 0 mm 0 mps 737 mmHg 44%
    14:00 +34°C° 0 mm 0 mps 737 mmHg 46%
    15:00 +33°C° 0 mm 0 mps 736 mmHg 47%
    16:00 +34°C° 0 mm 1 mps 736 mmHg 49%
    17:00 +31°C° 0 mm 0 mps 736 mmHg 53%
    18:00 +29°C° 0 mm 0 mps 737 mmHg 58%
    19:00 +27°C° 0 mm 0 mps 737 mmHg 62%
    20:00 +27°C° 0 mm 0 mps 738 mmHg 64%
    21:00 +26°C° 0 mm 0 mps 738 mmHg 66%
    22:00 +26°C° 0 mm 0 mps 738 mmHg 68%
    23:00 +25°C° 0 mm 0 mps 738 mmHg 69%

    17 November, Saturday

    Time Temperature Precipitation Wind Pressure Humidity
    00:00 +25°C° 0 mm 0 mps 738 mmHg 70%
    01:00 +25°C° 0 mm 0 mps 737 mmHg 72%
    02:00 +24°C° 0 mm 0 mps 737 mmHg 73%
    03:00 +24°C° 0 mm 0 mps 737 mmHg 75%
    04:00 +26°C° 0 mm 1 mps 737 mmHg 76%
    05:00 +26°C° 0 mm 1 mps 738 mmHg 77%
    06:00 +26°C° 0 mm 1 mps 738 mmHg 77%
    07:00 +26°C° 0 mm 1 mps 739 mmHg 78%
    08:00 +28°C° 0 mm 1 mps 739 mmHg 70%
    09:00 +31°C° 0 mm 1 mps 739 mmHg 62%
    10:00 +34°C° 0 mm 2 mps 740 mmHg 54%
    11:00 +34°C° 0 mm 1 mps 739 mmHg 50%
    12:00 +35°C° 0 mm 1 mps 738 mmHg 46%
    13:00 +37°C° 0 mm 1 mps 737 mmHg 43%
    14:00 +36°C° 0 mm 1 mps 736 mmHg 46%
    15:00 +33°C° 0 mm 0 mps 736 mmHg 49%
    16:00 +32°C° 0 mm 0 mps 735 mmHg 53%
    17:00 +30°C° 0 mm 0 mps 736 mmHg 56%
    18:00 +29°C° 0 mm 0 mps 737 mmHg 58%
    19:00 +28°C° 0 mm 0 mps 737 mmHg 61%
    20:00 +29°C° 0.4 mm 1 mps 738 mmHg 66%
    21:00 +28°C° 0.4 mm 1 mps 738 mmHg 71%
    22:00 +27°C° 0.4 mm 1 mps 738 mmHg 76%
    23:00 +27°C° 1 mm 1 mps 738 mmHg 81%

    18 November, Sunday

    Time Temperature Precipitation Wind Pressure Humidity
    00:00 +26°C° 1 mm 1 mps 738 mmHg 85%
    01:00 +26°C° 1 mm 1 mps 738 mmHg 90%
    02:00 +26°C° 0.7 mm 1 mps 738 mmHg 91%
    03:00 +25°C° 0.7 mm 1 mps 738 mmHg 92%
    04:00 +25°C° 0.7 mm 1 mps 738 mmHg 93%
    05:00 +25°C° 0.4 mm 1 mps 738 mmHg 94%
    06:00 +25°C° 0.4 mm 1 mps 739 mmHg 94%
    07:00 +25°C° 0.4 mm 1 mps 739 mmHg 94%
    08:00 +27°C° 0.4 mm 1 mps 739 mmHg 87%
    09:00 +28°C° 0.4 mm 2 mps 740 mmHg 80%
    10:00 +30°C° 0.4 mm 2 mps 740 mmHg 73%
    11:00 +31°C° 1.2 mm 2 mps 739 mmHg 69%
    12:00 +32°C° 1.2 mm 2 mps 738 mmHg 65%
    13:00 +33°C° 1.2 mm 1 mps 738 mmHg 62%
    14:00 +32°C° 2 mm 1 mps 737 mmHg 67%
    15:00 +31°C° 2 mm 1 mps 737 mmHg 73%
    16:00 +30°C° 2 mm 1 mps 736 mmHg 78%
    17:00 +29°C° 1.7 mm 1 mps 737 mmHg 82%
    18:00 +28°C° 1.7 mm 1 mps 738 mmHg 85%
    19:00 +27°C° 1.7 mm 1 mps 738 mmHg 89%
    20:00 +25°C° 0.2 mm 0 mps 739 mmHg 89%
    21:00 +24°C° 0.2 mm 0 mps 739 mmHg 90%
    22:00 +24°C° 0.2 mm 0 mps 739 mmHg 91%
    23:00 +24°C° 0.7 mm 0 mps 739 mmHg 91%
    Show more